WET,Max TemperatureF,Mean TemperatureF,Min TemperatureF,Max Dew PointF,MeanDew PointF,Min DewpointF,Max Humidity, Mean Humidity, Min Humidity, Max Sea Level PressureIn, Mean Sea Level PressureIn, Min Sea Level PressureIn, Max VisibilityMiles, Mean VisibilityMiles, Min VisibilityMiles, Max Wind SpeedMPH, Mean Wind SpeedMPH, Max Gust SpeedMPH,PrecipitationIn, CloudCover, Events, WindDirDegrees
2013-10-1,86,72,58,63,60,55,88,63,32,30.04,29.98,29.82,6,6,6,7,4,,0.00,1,,261
2013-10-2,87,73,59,63,61,55,94,67,30,30.01,29.90,29.70,6,6,6,10,5,,0.04,2,Thunderstorm,259
2013-10-3,82,73,64,64,63,61,94,70,43,30.04,29.94,29.81,6,6,5,7,4,,0.00,5,,293
2013-10-4,79,71,63,63,62,59,88,71,49,30.18,30.09,29.98,6,6,5,9,4,,0.00,5,,277
2013-10-5,82,71,60,61,59,53,94,63,34,30.21,30.16,30.05,6,6,6,7,3,,0.00,3,,280
2013-10-6,84,70,57,54,52,51,82,53,22,30.18,30.12,29.97,6,6,6,7,4,,0.00,,,211
2013-10-7,83,70,57,57,54,50,77,53,27,30.12,30.07,29.93,6,6,6,7,4,,0.00,2,,270
2013-10-8,88,74,59,59,55,50,82,54,24,30.09,30.01,29.86,6,6,0,13,5,,0.00,1,,73
2013-10-9,84,72,59,57,53,49,72,49,24,30.01,29.96,29.80,6,6,0,12,6,,0.00,1,,74
2013-10-10,87,73,59,61,55,48,78,56,27,29.98,29.94,29.79,6,6,6,8,4,,0.00,1,Thunderstorm,312
2013-10-11,83,68,53,61,59,54,83,65,35,30.09,29.98,29.88,6,6,6,10,5,,0.00,2,,258
2013-10-12,75,68,59,61,57,52,94,71,40,30.24,30.13,30.04,6,5,4,10,4,,0.00,5,,294
2013-10-13,76,63,50,54,51,48,94,66,35,30.21,30.18,30.06,6,6,6,9,4,22,0.00,,,234
2013-10-14,78,64,51,54,49,46,82,59,29,30.24,30.16,29.92,6,6,6,9,5,,0.00,2,,234
2013-10-15,84,67,50,59,50,45,82,51,27,30.21,30.16,30.04,6,6,6,7,5,,0.00,,,56
2013-10-16,85,69,53,50,47,43,67,40,18,30.21,30.15,30.01,6,6,6,13,5,,0.00,,,227
2013-10-17,89,70,52,52,44,37,62,35,12,30.12,30.05,29.90,6,6,6,9,5,,0.00,3,,228
2013-10-18,77,66,56,57,50,36,82,53,22,30.15,30.05,29.96,6,6,6,8,5,,0.00,,,235
2013-10-19,81,68,54,54,52,50,88,60,27,30.18,30.11,30.00,6,6,6,8,4,,0.00,1,,226
2013-10-20,79,66,53,59,53,48,88,63,38,30.18,30.11,29.46,12,6,5,9,4,,0.00,2,,212
2013-10-21,84,68,53,54,49,45,82,50,19,30.96,29.99,28.73,6,6,6,10,5,,0.00,,,211
2013-10-22,76,66,55,54,50,45,82,57,32,30.30,30.04,29.23,6,6,6,7,4,,0.00,,,159
2013-10-23,80,68,56,48,46,43,63,47,21,31.05,30.14,30.04,6,6,6,7,4,,0.00,6,,197
2013-10-24,84,69,54,63,50,43,82,53,16,30.12,30.05,29.65,6,6,4,8,5,23,0.00,,,197
2013-10-25,82,67,52,61,52,43,88,65,34,30.09,30.00,29.90,6,6,1,13,6,,0.00,6,,233
2013-10-26,69,62,56,54,51,46,89,65,42,30.21,30.13,30.06,6,6,6,12,4,,0.00,6,,24
2013-10-27,88,71,54,51,43,32,72,39,11,30.20,30.13,30.00,6,6,6,16,8,34,0.00,4,,64
2013-10-28,88,74,60,57,42,31,77,34,11,30.18,30.11,29.99,6,6,2,12,4,,0.00,6,,328
2013-10-29,76,66,55,55,51,46,88,61,32,30.21,30.14,30.06,6,6,4,18,8,37,0.00,5,,277
2013-10-30,70,57,44,46,36,28,77,48,15,30.23,30.15,30.07,6,6,6,8,6,,0.00,5,,218
2013-10-31,73,55,37,59,35,28,100,44,16,30.20,30.15,30.06,6,6,6,10,5,22,0.00,,,104